TimePST,TemperatureF,Dew PointF,Humidity,Sea Level PressureIn,VisibilityMPH,Wind Direction,Wind SpeedMPH,Gust SpeedMPH,PrecipitationIn,Events,Conditions,WindDirDegrees,DateUTC
12:53 AM,50.0,30.9,48,30.08,10.0,Calm,Calm,-,N/A,,Clear,0,2012-12-31 08:53:00
1:53 AM,46.0,33.1,61,30.11,10.0,SE,4.6,-,N/A,,Clear,130,2012-12-31 09:53:00
2:53 AM,44.1,35.1,71,30.12,10.0,Calm,Calm,-,N/A,,Clear,0,2012-12-31 10:53:00
3:53 AM,42.1,36.0,79,30.12,10.0,East,3.5,-,N/A,,Clear,90,2012-12-31 11:53:00
4:53 AM,41.0,36.0,82,30.14,10.0,Calm,Calm,-,N/A,,Clear,0,2012-12-31 12:53:00
6:53 AM,41.0,35.1,79,30.17,10.0,Calm,Calm,-,N/A,,Clear,0,2012-12-31 14:53:00
7:53 AM,43.0,35.1,74,30.19,10.0,Calm,Calm,-,N/A,,Clear,0,2012-12-31 15:53:00
8:53 AM,50.0,34.0,54,30.22,10.0,Calm,Calm,-,N/A,,Clear,0,2012-12-31 16:53:00
9:53 AM,52.0,36.0,54,30.24,10.0,ESE,5.8,-,N/A,,Clear,110,2012-12-31 17:53:00
10:29 AM,53.6,37.4,54,30.24,1.8,SE,4.6,-,N/A,,Haze,130,2012-12-31 18:29:00
10:36 AM,53.6,37.4,54,30.23,10.0,ESE,6.9,-,N/A,,Clear,120,2012-12-31 18:36:00
10:53 AM,54.0,37.9,55,30.22,10.0,ESE,8.1,-,N/A,,Clear,110,2012-12-31 18:53:00
11:53 AM,55.9,37.0,49,30.21,10.0,SE,3.5,-,N/A,,Clear,130,2012-12-31 19:53:00
12:53 PM,57.9,37.0,46,30.19,10.0,SSE,4.6,-,N/A,,Clear,150,2012-12-31 20:53:00
1:53 PM,57.9,36.0,44,30.18,10.0,Variable,4.6,-,N/A,,Clear,0,2012-12-31 21:53:00
2:53 PM,59.0,39.0,48,30.18,10.0,SW,3.5,-,N/A,,Scattered Clouds,230,2012-12-31 22:53:00
3:53 PM,57.9,41.0,53,30.19,10.0,WSW,8.1,-,N/A,,Partly Cloudy,250,2012-12-31 23:53:00
4:53 PM,55.9,39.0,53,30.21,10.0,West,8.1,-,N/A,,Clear,260,2013-01-01 00:53:00
5:53 PM,54.0,41.0,62,30.21,10.0,Calm,Calm,-,N/A,,Clear,0,2013-01-01 01:53:00
6:53 PM,53.1,39.9,61,30.22,10.0,Calm,Calm,-,N/A,,Clear,0,2013-01-01 02:53:00
7:53 PM,52.0,41.0,66,30.23,10.0,Calm,Calm,-,N/A,,Clear,0,2013-01-01 03:53:00
8:53 PM,51.1,39.9,66,30.24,10.0,Calm,Calm,-,N/A,,Clear,0,2013-01-01 04:53:00
9:53 PM,48.9,41.0,74,30.25,10.0,Calm,Calm,-,N/A,,Clear,0,2013-01-01 05:53:00
10:53 PM,50.0,39.0,66,30.25,7.0,Calm,Calm,-,N/A,,Clear,0,2013-01-01 06:53:00
11:53 PM,48.9,37.9,66,30.25,7.0,Calm,Calm,-,N/A,,Clear,0,2013-01-01 07:53:00